Weather History for Buffalo, WY

Change the Weather History Date:

Friday, April 5, 2013

  Actual Average Record
Temperature  
Mean Temperature 51 °F 40 °F  
Max Temperature 61 °F 51 °F 73 °F (2006)
Min Temperature 41 °F 29 °F 11 °F (2009)
Degree Days  
Heating Degree Days 14 25  
Month to date heating degree days 89 128  
Since 1 July heating degree days 5973 6318  
Cooling Degree Days 0 0  
Month to date cooling degree days 0 0  
Year to date cooling degree days 0 0  
Moisture  
Dew Point 34 °F    
Average Humidity 59    
Maximum Humidity 82    
Minimum Humidity 35    
Precipitation  
Precipitation 0.16 in 0.02 in 0.16 in (2013)
Month to date precipitation 0.16 0.13  
Year to date precipitation 0.85 1.82  
Sea Level Pressure  
Sea Level Pressure 29.69 in    
Wind  
Wind Speed 11 mph (NNW)    
Max Wind Speed 36 mph    
Max Gust Speed 47 mph    
Visibility 9 miles    
Events Rain , Thunderstorm    
T = Trace of Precipitation, MM = Missing Value Source: NWS Daily Summary

Daily Weather History Graph

Daily Weather History Graph

Search for Another Location

Airport:

Trip Planner

Search our weather history database for the weather conditions in past years. The results will help you decide how hot, cold, wet, or windy it might be!

Date:

Astronomy

Apr. 05, 2013 Rise Set
Actual Time 6:40 AM MDT 7:39 PM MDT
Civil Twilight 6:10 AM MDT 8:09 PM MDT
Nautical Twilight 5:35 AM MDT 8:44 PM MDT
Astronomical Twilight 4:58 AM MDT 9:21 PM MDT
Moon 3:59 AM MDT (4/5) 2:57 PM MDT (4/5)
Length of Visible Light 13h 58m
Length of Day
12h 59m
Waning Crescent, 23% of the Moon is Illuminated
Apr 5
Waning Crescent
Apr 10
New
Apr 18
First Quarter
Apr 25
Full
May 2
Last Quarter

Hourly Weather History & Observations

Time (MDT) Temp. Windchill Dew Point Humidity Pressure Visibility Wind Dir Wind Speed Gust Speed Precip Events Conditions
12:53 AM 50.0 °F - 32.0 °F 50% 29.75 in 10.0 mi Variable 6.9 mph - N/A   Overcast
1:53 AM 50.0 °F - 32.0 °F 50% 29.74 in 10.0 mi SE 5.8 mph - N/A   Overcast
2:53 AM 48.0 °F - 33.1 °F 56% 29.72 in 10.0 mi North 3.5 mph - N/A   Mostly Cloudy
3:53 AM 48.0 °F - 32.0 °F 54% 29.69 in 10.0 mi Calm Calm - N/A   Clear
4:53 AM 46.0 °F 41.9 °F 30.9 °F 56% 29.67 in 10.0 mi North 8.1 mph - N/A   Clear
5:53 AM 46.0 °F 44.8 °F 30.9 °F 56% 29.68 in 10.0 mi NNW 3.5 mph - N/A   Clear
6:53 AM 48.0 °F - 30.9 °F 52% 29.67 in 10.0 mi WSW 6.9 mph - N/A   Clear
7:53 AM 48.0 °F - 32.0 °F 54% 29.67 in 10.0 mi WSW 4.6 mph - N/A   Partly Cloudy
8:53 AM 55.9 °F - 30.0 °F 37% 29.65 in 10.0 mi South 3.5 mph - N/A   Clear
9:53 AM 59.0 °F - 32.0 °F 36% 29.64 in 10.0 mi North 5.8 mph - N/A   Clear
10:53 AM 60.1 °F - 32.0 °F 35% 29.63 in 10.0 mi North 10.4 mph - N/A   Clear
11:53 AM 60.1 °F - 32.0 °F 35% 29.62 in 10.0 mi North 11.5 mph - N/A   Scattered Clouds
12:53 PM 60.1 °F - 33.1 °F 36% 29.60 in 10.0 mi NNW 11.5 mph - N/A   Overcast
1:53 PM 57.0 °F - 34.0 °F 42% 29.60 in 10.0 mi NNW 9.2 mph - N/A   Overcast
2:53 PM 50.0 °F - 41.0 °F 71% 29.62 in 7.0 mi East 10.4 mph - 0.03 in Rain Light Rain
3:53 PM 54.0 °F - 43.0 °F 66% 29.61 in 10.0 mi NNW 9.2 mph - 0.00 in   Scattered Clouds
4:53 PM 53.1 °F - 39.9 °F 61% 29.65 in 10.0 mi NW 25.3 mph 32.2 mph N/A   Mostly Cloudy
5:53 PM 42.1 °F 31.9 °F 39.0 °F 89% 29.73 in 3.0 mi NNW 26.5 mph 41.4 mph 0.03 in Rain , Thunderstorm Light Thunderstorms and Rain
6:00 PM 42.8 °F 33.8 °F 37.4 °F 81% 29.78 in 2.5 mi NNW 21.9 mph 39.1 mph 0.02 in Rain , Thunderstorm Thunderstorms and Rain
6:04 PM 42.8 °F 34.3 °F 37.4 °F 81% 29.78 in 3.0 mi NNW 19.6 mph 28.8 mph 0.03 in Rain , Thunderstorm Rain
6:10 PM 41.0 °F 31.1 °F 37.4 °F 87% 29.77 in 4.0 mi NNW 23.0 mph 32.2 mph 0.04 in Rain Rain
6:43 PM 41.0 °F 31.4 °F 37.4 °F 87% 29.76 in 10.0 mi North 21.9 mph 39.1 mph 0.10 in Rain Light Rain
6:53 PM 42.1 °F 34.2 °F 39.0 °F 89% 29.73 in 10.0 mi NNW 16.1 mph 26.5 mph 0.10 in   Overcast
7:53 PM 45.0 °F 41.8 °F 35.1 °F 68% 29.72 in 10.0 mi North 5.8 mph - N/A   Overcast
8:53 PM 43.0 °F 36.4 °F 37.0 °F 80% 29.70 in 10.0 mi NNW 12.7 mph - N/A   Clear
9:53 PM 46.9 °F - 30.9 °F 54% 29.73 in 10.0 mi NW 16.1 mph - N/A   Clear
10:53 PM 46.0 °F 41.0 °F 30.0 °F 54% 29.73 in 10.0 mi WNW 10.4 mph - N/A   Clear
11:53 PM 46.9 °F - 28.0 °F 48% 29.74 in 10.0 mi NW 12.7 mph - N/A   Clear